Total_Precipitation_Accumulation
2.32 2.50 2.50 2.57 2.50 2.65 2.57 2.38 2.13 2.00 1.87 1.62 1.51 1.52 1.50 1.49 1.53 1.61 1.78 1.85 1.87 2.10 2.45 2.67 2.60 2.46 2.47 2.51 2.55 2.55 2.51 2.43 2.32 2.13 1.94 1.77 1.72 1.76 1.72 1.77 1.73 1.67 1.64
2.76 2.82 2.86 2.91 2.73 2.72 2.75 2.65 2.35 2.23 2.09 1.87 1.63 1.54 1.54 1.70 1.72 1.64 1.83 1.97 1.91 1.95 2.27 2.69 2.92 3.02 3.11 3.15 2.99 2.74 2.68 2.65 2.65 2.52 2.32 2.07 1.91 1.83 1.76 1.82 1.84 1.76 1.74
3.11 3.06 3.21 3.27 3.11 3.02 2.98 2.91 2.76 2.51 2.35 2.23 2.09 1.93 1.79 1.79 1.91 2.00 2.03 2.15 2.21 2.18 2.31 2.58 2.87 3.08 3.22 3.41 3.34 3.11 2.93 2.87 2.90 2.84 2.71 2.50 2.26 2.06 1.97 1.91 1.90 1.87 1.76
3.56 3.65 3.54 3.38 3.29 3.21 3.19 3.31 3.11 2.78 2.67 2.69 2.57 2.23 1.94 1.99 2.08 2.14 2.14 2.25 2.44 2.37 2.40 2.40 2.53 2.78 3.03 3.29 3.42 3.46 3.37 3.32 3.19 3.06 2.96 2.84 2.71 2.50 2.30 2.22 2.10 1.99 1.89
3.89 4.00 3.91 3.70 3.52 3.43 3.45 3.21 3.19 3.09 3.07 2.98 2.60 2.36 2.07 2.00 2.07 2.06 2.11 2.19 2.41 2.53 2.56 2.36 2.44 2.73 2.93 3.19 3.44 3.64 3.76 3.73 3.56 3.44 3.32 3.22 3.11 2.88 2.63 2.46 2.32 2.22 2.14
4.34 4.30 4.14 4.00 3.88 3.73 3.63 3.49 3.45 3.38 3.20 3.06 2.63 2.39 2.19 2.00 1.99 2.03 2.03 2.10 2.16 2.20 2.31 2.35 2.40 2.34 2.56 2.89 3.20 3.52 3.82 4.07 3.94 3.67 3.51 3.47 3.39 3.18 3.02 2.84 2.65 2.52 2.43
4.81 4.75 4.61 4.46 4.21 3.95 3.79 3.65 3.50 3.35 3.10 3.01 2.86 2.57 2.18 1.92 1.94 1.92 1.86 1.95 2.01 1.98 2.05 2.13 2.31 2.26 2.19 2.46 2.65 3.02 3.46 3.95 4.15 4.02 3.85 3.77 3.70 3.51 3.29 3.08 2.93 2.83 2.70
5.41 5.26 5.17 4.89 4.51 4.24 3.94 3.68 3.50 3.24 2.99 2.95 2.96 3.00 2.59 2.20 1.81 1.58 1.62 1.67 1.68 1.69 1.76 1.87 1.94 2.00 1.96 2.09 2.14 2.39 2.73 3.11 3.55 3.80 3.81 3.77 3.72 3.61 3.47 3.29 3.10 3.03 3.07
5.51 5.19 4.97 4.83 4.52 4.08 3.81 3.63 3.44 3.21 2.99 2.90 2.85 3.04 2.84 2.45 2.03 1.77 1.58 1.48 1.51 1.61 1.65 1.75 1.79 1.74 1.67 1.73 1.80 1.96 2.11 2.25 2.68 3.17 3.46 3.48 3.41 3.33 3.31 3.35 3.33 3.22 3.15
5.12 4.83 4.57 4.30 4.03 3.67 3.42 3.22 3.14 3.09 2.98 2.80 2.75 2.58 2.40 2.26 2.24 2.00 1.75 1.63 1.59 1.60 1.55 1.50 1.53 1.57 1.58 1.61 1.68 1.72 1.79 1.90 2.16 2.48 2.78 2.94 2.99 2.98 2.94 2.92 2.99 3.03 3.10
4.41 4.06 3.81 3.57 3.32 3.04 2.82 2.63 2.59 2.69 2.73 2.66 2.62 2.56 2.43 2.33 2.24 2.08 1.92 1.85 1.81 1.70 1.58 1.49 1.45 1.45 1.44 1.47 1.52 1.58 1.67 1.68 1.77 1.95 2.19 2.32 2.44 2.59 2.68 2.70 2.72 2.84 3.00
3.68 3.35 3.06 2.83 2.57 2.34 2.20 2.12 2.07 2.12 2.25 2.31 2.36 2.35 2.32 2.39 2.37 2.33 2.17 2.06 1.99 1.86 1.71 1.59 1.51 1.48 1.44 1.46 1.51 1.70 1.59 1.60 1.68 1.71 1.80 1.89 1.98 2.12 2.29 2.48 2.63 2.82 3.05
2.79 2.56 2.29 2.08 1.88 1.78 1.76 1.78 1.80 1.84 1.88 1.93 2.03 2.11 2.14 2.16 2.18 2.33 2.43 2.30 2.12 1.87 1.73 1.63 1.53 1.50 1.48 1.49 1.49 1.54 1.42 1.38 1.41 1.45 1.54 1.64 1.72 1.84 1.93 2.05 2.21 2.38 2.58
1.86 1.74 1.66 1.52 1.48 1.49 1.45 1.49 1.54 1.58 1.62 1.63 1.64 1.81 1.93 1.90 1.84 1.95 2.18 2.25 2.19 1.97 1.71 1.59 1.47 1.43 1.41 1.37 1.44 1.41 1.29 1.34 1.28 1.23 1.20 1.22 1.30 1.43 1.52 1.60 1.73 1.87 1.99
1.46 1.33 1.31 1.28 1.26 1.30 1.31 1.32 1.31 1.27 1.33 1.42 1.44 1.54 1.65 1.64 1.57 1.57 1.71 1.86 2.00 1.98 1.72 1.47 1.42 1.35 1.29 1.27 1.37 1.14 1.16 1.24 1.16 1.10 1.05 1.01 1.05 1.11 1.18 1.19 1.25 1.36 1.51
1.25 1.16 1.07 1.05 1.01 1.01 1.07 1.19 1.20 1.16 1.16 1.17 1.21 1.28 1.34 1.34 1.36 1.35 1.41 1.50 1.68 1.82 1.74 1.37 1.23 1.21 1.24 1.13 1.20 1.05 1.07 1.08 1.00 0.93 0.87 0.85 0.84 0.90 0.91 0.93 0.96 1.03 1.20
1.02 0.96 0.89 0.85 0.82 0.81 0.86 0.97 1.03 1.03 1.06 1.04 1.00 0.99 1.03 1.08 1.17 1.15 1.19 1.25 1.40 1.59 1.67 1.42 1.24 1.19 1.23 1.25 1.24 1.19 1.04 0.91 0.85 0.85 0.79 0.79 0.77 0.77 0.81 0.80 0.80 0.84 0.94
0.88 0.85 0.82 0.79 0.75 0.77 0.84 0.87 0.88 0.86 0.92 0.90 0.87 0.86 0.87 0.94 1.03 1.06 1.10 1.14 1.23 1.38 1.50 1.50 1.33 1.22 1.20 1.23 1.25 1.24 1.01 0.81 0.76 0.83 0.80 0.75 0.74 0.72 0.76 0.77 0.76 0.75 0.73
0.84 0.81 0.79 0.80 0.80 0.75 0.77 0.78 0.75 0.76 0.80 0.83 0.81 0.78 0.79 0.87 0.90 0.93 0.98 1.02 1.07 1.10 1.25 1.28 1.16 1.10 1.08 1.09 1.23 1.24 1.15 1.08 0.76 0.72 0.74 0.69 0.71 0.67 0.64 0.64 0.66 0.67 0.64
0.77 0.75 0.75 0.74 0.71 0.66 0.68 0.70 0.67 0.72 0.79 0.75 0.70 0.70 0.72 0.71 0.72 0.80 0.84 0.95 1.04 1.13 1.18 1.19 1.10 1.00 1.04 1.10 1.33 1.39 1.30 1.14 0.93 0.65 0.67 0.65 0.65 0.64 0.63 0.63 0.59 0.59 0.62
0.72 0.72 0.68 0.67 0.62 0.59 0.59 0.61 0.58 0.56 0.67 0.68 0.66 0.66 0.64 0.61 0.60 0.65 0.68 0.78 0.95 1.12 1.19 1.24 1.16 1.05 1.05 1.21 1.30 1.26 1.24 1.12 0.96 0.76 0.76 0.71 0.73 0.91 1.10 1.15 0.93 0.71 0.66
0.72 0.72 0.73 0.70 0.63 0.56 0.61 0.59 0.50 0.53 0.61 0.65 0.67 0.68 0.63 0.56 0.52 0.53 0.53 0.60 0.75 0.94 1.12 1.26 1.21 1.14 1.08 1.20 1.30 1.26 1.32 1.32 1.21 0.93 0.95 0.87 0.89 1.27 1.66 1.83 1.42 0.88 0.73
0.70 0.73 0.73 0.72 0.68 0.61 0.62 0.57 0.53 0.54 0.63 0.73 0.76 0.75 0.64 0.54 0.61 0.62 0.60 0.57 0.61 0.69 0.93 1.21 1.33 1.22 1.17 1.26 1.41 1.41 1.43 1.44 1.35 1.11 1.18 1.18 1.12 1.39 1.44 1.53 1.45 1.02 0.90
0.74 0.81 0.81 0.75 0.73 0.68 0.65 0.60 0.56 0.57 0.60 0.68 0.71 0.71 0.75 0.76 0.68 0.64 0.58 0.64 0.73 0.80 0.84 0.92 1.14 1.17 1.06 1.10 1.28 1.36 1.40 1.37 1.30 1.25 1.32 1.41 1.28 1.36 1.26 1.53 1.68 1.48 1.27
0.78 0.83 0.82 0.79 0.78 0.73 0.64 0.59 0.62 0.64 0.60 0.60 0.58 0.58 0.66 0.71 0.66 0.61 0.64 0.74 0.82 0.88 0.75 0.83 0.92 1.04 1.10 1.04 1.04 1.14 1.37 1.54 1.55 1.36 1.30 1.41 1.41 1.44 1.53 1.78 1.77 1.71 1.59
0.77 0.77 0.80 0.81 0.77 0.71 0.59 0.53 0.57 0.58 0.58 0.56 0.59 0.62 0.60 0.56 0.56 0.57 0.67 0.83 0.93 0.91 0.93 1.08 1.25 1.36 1.33 1.23 1.08 1.17 1.45 1.66 1.70 1.62 1.34 1.44 1.57 1.68 1.95 2.03 1.90 1.69 1.63